• In Hungary
  • List of Countries
  • For 7 days
  • Water Temperature
  • Satellite Maps
  • Weather Map
  • News
  • Weather Widgets
  • user-avatar
    Login

    Hourly Weather Lozenec

    Today, 23 October, Monday

    Time Temperature Precipitation Wind Pressure Humidity
    00:00 +14°C° 0 mm 4 mps 758 mmHg 82%
    01:00 +13°C° 0 mm 4 mps 757 mmHg 85%
    02:00 +13°C° 0 mm 3 mps 757 mmHg 88%
    03:00 +13°C° 0 mm 4 mps 757 mmHg 89%
    04:00 +13°C° 0 mm 4 mps 756 mmHg 91%
    05:00 +13°C° 0 mm 4 mps 756 mmHg 92%
    06:00 +14°C° 0 mm 5 mps 755 mmHg 90%
    07:00 +14°C° 0 mm 5 mps 755 mmHg 88%
    08:00 +15°C° 0 mm 5 mps 754 mmHg 85%
    09:00 +17°C° 0 mm 5 mps 754 mmHg 77%
    10:00 +19°C° 0 mm 6 mps 754 mmHg 70%
    11:00 +21°C° 0 mm 6 mps 753 mmHg 62%
    12:00 +22°C° 0 mm 6 mps 753 mmHg 57%
    13:00 +23°C° 0 mm 6 mps 752 mmHg 52%
    14:00 +24°C° 0 mm 6 mps 752 mmHg 48%
    15:00 +23°C° 0 mm 5 mps 751 mmHg 50%
    16:00 +22°C° 0 mm 5 mps 751 mmHg 52%
    17:00 +21°C° 0 mm 5 mps 751 mmHg 54%
    18:00 +20°C° 0 mm 5 mps 750 mmHg 57%
    19:00 +19°C° 0 mm 4 mps 750 mmHg 59%
    20:00 +18°C° 0 mm 4 mps 750 mmHg 62%
    21:00 +18°C° 0 mm 4 mps 750 mmHg 61%
    22:00 +18°C° 0 mm 4 mps 749 mmHg 60%
    23:00 +18°C° 0 mm 4 mps 749 mmHg 60%

    Tomorrow, 24 October, Tuesday

    Time Temperature Precipitation Wind Pressure Humidity
    00:00 +18°C° 0 mm 4 mps 749 mmHg 60%
    01:00 +18°C° 0 mm 4 mps 749 mmHg 61%
    02:00 +18°C° 0 mm 4 mps 749 mmHg 62%
    03:00 +18°C° 0.5 mm 4 mps 749 mmHg 68%
    04:00 +17°C° 0.5 mm 5 mps 748 mmHg 74%
    05:00 +16°C° 0.5 mm 6 mps 748 mmHg 81%
    06:00 +17°C° 0.6 mm 6 mps 748 mmHg 78%
    07:00 +17°C° 0.6 mm 6 mps 749 mmHg 76%
    08:00 +17°C° 0.6 mm 6 mps 749 mmHg 74%
    09:00 +19°C° 0.3 mm 6 mps 749 mmHg 69%
    10:00 +20°C° 0.3 mm 6 mps 750 mmHg 64%
    11:00 +21°C° 0.3 mm 6 mps 750 mmHg 60%
    12:00 +21°C° 0.2 mm 6 mps 750 mmHg 58%
    13:00 +21°C° 0.2 mm 6 mps 750 mmHg 57%
    14:00 +22°C° 0.2 mm 6 mps 750 mmHg 55%
    15:00 +21°C° 0.3 mm 6 mps 751 mmHg 60%
    16:00 +20°C° 0.3 mm 6 mps 751 mmHg 65%
    17:00 +19°C° 0.3 mm 6 mps 751 mmHg 71%
    18:00 +19°C° 0.7 mm 6 mps 752 mmHg 75%
    19:00 +17°C° 0.7 mm 6 mps 752 mmHg 78%
    20:00 +17°C° 0.7 mm 6 mps 753 mmHg 82%
    21:00 +16°C° 0.6 mm 6 mps 753 mmHg 84%
    22:00 +16°C° 0.6 mm 5 mps 754 mmHg 85%
    23:00 +16°C° 0.6 mm 5 mps 754 mmHg 87%

    Day after tomorrow, 25 October, Wednesday

    Time Temperature Precipitation Wind Pressure Humidity
    00:00 +16°C° 0.6 mm 5 mps 755 mmHg 87%
    01:00 +16°C° 0.6 mm 5 mps 755 mmHg 87%
    02:00 +16°C° 0.6 mm 6 mps 756 mmHg 88%
    03:00 +16°C° 1.3 mm 6 mps 756 mmHg 89%
    04:00 +15°C° 1.3 mm 7 mps 756 mmHg 90%
    05:00 +15°C° 1.3 mm 8 mps 757 mmHg 91%
    06:00 +13°C° 2.5 mm 9 mps 757 mmHg 91%
    07:00 +13°C° 2.5 mm 9 mps 758 mmHg 91%
    08:00 +12°C° 2.5 mm 10 mps 758 mmHg 91%
    09:00 +12°C° 1.7 mm 10 mps 759 mmHg 90%
    10:00 +12°C° 1.7 mm 10 mps 759 mmHg 90%
    11:00 +12°C° 1.7 mm 10 mps 760 mmHg 90%
    12:00 +11°C° 0.5 mm 10 mps 760 mmHg 89%
    13:00 +11°C° 0.5 mm 11 mps 760 mmHg 88%
    14:00 +9°C° 0.5 mm 11 mps 761 mmHg 88%
    15:00 +9°C° 0.7 mm 11 mps 761 mmHg 88%
    16:00 +9°C° 0.7 mm 10 mps 762 mmHg 87%
    17:00 +9°C° 0.7 mm 10 mps 762 mmHg 87%
    18:00 +9°C° 0.4 mm 10 mps 763 mmHg 86%
    19:00 +9°C° 0.4 mm 10 mps 763 mmHg 86%
    20:00 +10°C° 0.4 mm 9 mps 764 mmHg 85%
    21:00 +10°C° 0.3 mm 9 mps 764 mmHg 84%
    22:00 +10°C° 0.3 mm 9 mps 765 mmHg 84%
    23:00 +10°C° 0.3 mm 9 mps 765 mmHg 83%

    26 October, Thursday

    Time Temperature Precipitation Wind Pressure Humidity
    00:00 +10°C° 0.2 mm 8 mps 765 mmHg 83%
    01:00 +9°C° 0.2 mm 8 mps 765 mmHg 83%
    02:00 +9°C° 0.2 mm 8 mps 766 mmHg 83%
    03:00 +7°C° 0 mm 8 mps 766 mmHg 83%
    04:00 +8°C° 0 mm 7 mps 766 mmHg 83%
    05:00 +8°C° 0 mm 7 mps 766 mmHg 84%
    06:00 +8°C° 0 mm 7 mps 767 mmHg 82%
    07:00 +8°C° 0 mm 6 mps 767 mmHg 81%
    08:00 +8°C° 0 mm 6 mps 767 mmHg 79%
    09:00 +10°C° 0 mm 5 mps 767 mmHg 74%
    10:00 +12°C° 0 mm 5 mps 767 mmHg 69%
    11:00 +14°C° 0 mm 5 mps 767 mmHg 64%
    12:00 +14°C° 0 mm 4 mps 767 mmHg 61%
    13:00 +16°C° 0 mm 3 mps 767 mmHg 59%
    14:00 +17°C° 0 mm 3 mps 767 mmHg 57%
    15:00 +16°C° 0 mm 2 mps 766 mmHg 62%
    16:00 +15°C° 0 mm 2 mps 766 mmHg 66%
    17:00 +14°C° 0 mm 2 mps 766 mmHg 71%
    18:00 +13°C° 0 mm 2 mps 766 mmHg 73%
    19:00 +13°C° 0 mm 1 mps 766 mmHg 76%
    20:00 +12°C° 0 mm 1 mps 766 mmHg 78%
    21:00 +12°C° 0 mm 1 mps 766 mmHg 78%
    22:00 +12°C° 0 mm 1 mps 766 mmHg 78%
    23:00 +12°C° 0 mm 1 mps 766 mmHg 79%

    27 October, Friday

    Time Temperature Precipitation Wind Pressure Humidity
    00:00 +11°C° 0 mm 1 mps 766 mmHg 79%
    01:00 +10°C° 0 mm 2 mps 765 mmHg 80%
    02:00 +10°C° 0 mm 2 mps 765 mmHg 81%
    03:00 +10°C° 0 mm 2 mps 764 mmHg 82%
    04:00 +10°C° 0 mm 2 mps 764 mmHg 82%
    05:00 +10°C° 0 mm 2 mps 764 mmHg 83%
    06:00 +10°C° 0 mm 2 mps 764 mmHg 80%
    07:00 +12°C° 0 mm 2 mps 763 mmHg 78%
    08:00 +13°C° 0 mm 2 mps 763 mmHg 75%
    09:00 +15°C° 0 mm 2 mps 763 mmHg 68%
    10:00 +16°C° 0 mm 2 mps 763 mmHg 61%
    11:00 +18°C° 0 mm 2 mps 762 mmHg 54%
    12:00 +19°C° 0 mm 2 mps 761 mmHg 52%
    13:00 +20°C° 0 mm 2 mps 761 mmHg 50%
    14:00 +20°C° 0 mm 2 mps 760 mmHg 48%
    15:00 +19°C° 0 mm 3 mps 759 mmHg 53%
    16:00 +18°C° 0 mm 3 mps 759 mmHg 57%
    17:00 +17°C° 0 mm 3 mps 758 mmHg 62%
    18:00 +16°C° 0 mm 3 mps 758 mmHg 64%
    19:00 +14°C° 0 mm 3 mps 758 mmHg 66%
    20:00 +13°C° 0 mm 3 mps 758 mmHg 68%
    21:00 +13°C° 0 mm 3 mps 757 mmHg 68%
    22:00 +13°C° 0 mm 3 mps 757 mmHg 68%
    23:00 +13°C° 0 mm 3 mps 756 mmHg 68%

    28 October, Saturday

    Time Temperature Precipitation Wind Pressure Humidity
    00:00 +13°C° 0 mm 3 mps 756 mmHg 69%
    01:00 +13°C° 0 mm 3 mps 755 mmHg 70%
    02:00 +13°C° 0 mm 3 mps 755 mmHg 71%
    03:00 +12°C° 0 mm 3 mps 754 mmHg 71%
    04:00 +12°C° 0 mm 3 mps 754 mmHg 72%
    05:00 +12°C° 0 mm 3 mps 754 mmHg 72%
    06:00 +13°C° 0 mm 3 mps 754 mmHg 70%
    07:00 +13°C° 0 mm 3 mps 754 mmHg 69%
    08:00 +14°C° 0 mm 3 mps 754 mmHg 67%
    09:00 +15°C° 0 mm 4 mps 754 mmHg 64%
    10:00 +16°C° 0 mm 5 mps 754 mmHg 60%
    11:00 +17°C° 0 mm 6 mps 754 mmHg 57%
    12:00 +17°C° 0.1 mm 6 mps 754 mmHg 60%
    13:00 +16°C° 0.1 mm 7 mps 754 mmHg 63%
    14:00 +16°C° 0.1 mm 7 mps 754 mmHg 66%
    15:00 +15°C° 0.2 mm 7 mps 755 mmHg 71%
    16:00 +13°C° 0.2 mm 6 mps 755 mmHg 75%
    17:00 +11°C° 0.2 mm 6 mps 755 mmHg 79%
    18:00 +12°C° 0.5 mm 5 mps 755 mmHg 81%
    19:00 +12°C° 0.5 mm 5 mps 756 mmHg 83%
    20:00 +11°C° 0.5 mm 4 mps 756 mmHg 84%
    21:00 +11°C° 0.4 mm 4 mps 756 mmHg 84%
    22:00 +11°C° 0.4 mm 4 mps 756 mmHg 84%
    23:00 +11°C° 0.4 mm 4 mps 756 mmHg 84%

    29 October, Sunday

    Time Temperature Precipitation Wind Pressure Humidity
    00:00 +10°C° 0.4 mm 4 mps 756 mmHg 84%
    01:00 +10°C° 0.4 mm 4 mps 756 mmHg 83%
    02:00 +10°C° 0.4 mm 4 mps 756 mmHg 83%
    03:00 +10°C° 0.5 mm 4 mps 755 mmHg 84%
    04:00 +8°C° 0.5 mm 4 mps 755 mmHg 85%
    05:00 +8°C° 0.5 mm 4 mps 755 mmHg 85%
    06:00 +8°C° 0.7 mm 4 mps 754 mmHg 86%
    07:00 +8°C° 0.7 mm 5 mps 754 mmHg 87%
    08:00 +8°C° 0.7 mm 5 mps 754 mmHg 87%
    09:00 +8°C° 1.1 mm 5 mps 754 mmHg 87%
    10:00 +8°C° 1.1 mm 6 mps 753 mmHg 87%
    11:00 +8°C° 1.1 mm 6 mps 753 mmHg 87%
    12:00 +8°C° 1.7 mm 7 mps 753 mmHg 87%
    13:00 +8°C° 1.7 mm 7 mps 752 mmHg 87%
    14:00 +8°C° 1.7 mm 7 mps 751 mmHg 87%
    15:00 +8°C° 1.2 mm 7 mps 751 mmHg 86%
    16:00 +8°C° 1.2 mm 7 mps 751 mmHg 86%
    17:00 +8°C° 1.2 mm 7 mps 751 mmHg 86%
    18:00 +8°C° 0.6 mm 7 mps 752 mmHg 86%
    19:00 +8°C° 0.6 mm 7 mps 752 mmHg 86%
    20:00 +8°C° 0.6 mm 6 mps 752 mmHg 86%
    21:00 +8°C° 0.2 mm 6 mps 753 mmHg 86%
    22:00 +8°C° 0.2 mm 6 mps 753 mmHg 86%
    23:00 +7°C° 0.2 mm 6 mps 753 mmHg 86%
    Show more